QPF
0.00 0.00 0.00 0.00 0.00 0.00 0.00 0.00 0.00 0.00 0.00 0.00 0.00 0.00 0.00 0.00 0.00 0.00 0.00 0.00 0.00 0.00 0.00 0.00 0.00 0.00 0.00 0.00 0.00 0.00 0.00 0.00 0.00 0.00 0.00 0.00 0.00 0.00 0.01 0.00 0.00 0.04 0.09 0.12
0.00 0.00 0.00 0.00 0.00 0.00 0.00 0.00 0.00 0.01 0.00 0.00 0.00 0.00 0.00 0.02 0.00 0.00 0.00 0.00 0.00 0.00 0.00 0.00 0.00 0.00 0.00 0.00 0.00 0.00 0.00 0.00 0.00 0.00 0.00 0.00 0.00 0.01 0.12 0.07 0.03 0.02 0.08 0.12
0.00 0.00 0.00 0.00 0.00 0.00 0.00 0.00 0.00 0.00 0.00 0.00 0.00 0.00 0.01 0.06 0.00 0.00 0.00 0.00 0.00 0.00 0.00 0.00 0.00 0.00 0.00 0.00 0.00 0.00 0.00 0.00 0.00 0.00 0.00 0.00 0.04 0.28 0.98 0.49 0.45 0.11 0.04 0.04
0.00 0.00 0.00 0.00 0.00 0.00 0.00 0.00 0.00 0.00 0.00 0.00 0.00 0.00 0.01 0.10 0.00 0.00 0.00 0.00 0.00 0.00 0.00 0.00 0.00 0.00 0.00 0.00 0.00 0.00 0.00 0.00 0.00 0.00 0.00 0.01 0.02 0.07 0.33 0.40 0.16 0.09 0.03 0.03
0.00 0.00 0.00 0.00 0.00 0.00 0.00 0.00 0.00 0.00 0.00 0.00 0.00 0.00 0.00 0.00 0.00 0.00 0.00 0.00 0.00 0.00 0.00 0.00 0.00 0.00 0.00 0.00 0.00 0.00 0.00 0.00 0.00 0.00 0.00 0.02 0.00 0.00 0.30 0.66 0.33 0.14 0.06 0.03
0.00 0.00 0.00 0.00 0.00 0.00 0.00 0.00 0.00 0.00 0.00 0.00 0.00 0.00 0.00 0.00 0.00 0.00 0.00 0.00 0.00 0.00 0.00 0.00 0.00 0.00 0.00 0.00 0.00 0.00 0.00 0.00 0.00 0.00 0.00 0.01 0.02 0.01 0.07 0.15 0.23 0.09 0.03 0.04
0.00 0.00 0.00 0.00 0.00 0.00 0.00 0.00 0.00 0.00 0.00 0.00 0.00 0.00 0.00 0.00 0.00 0.00 0.00 0.00 0.00 0.00 0.00 0.00 0.00 0.00 0.00 0.00 0.00 0.00 0.00 0.00 0.00 0.00 0.00 0.00 0.02 0.02 0.04 0.04 0.02 0.01 0.03 0.01
0.00 0.00 0.00 0.00 0.00 0.00 0.00 0.00 0.00 0.00 0.00 0.00 0.00 0.00 0.00 0.00 0.00 0.00 0.00 0.00 0.00 0.00 0.00 0.00 0.00 0.00 0.00 0.00 0.00 0.00 0.00 0.00 0.00 0.00 0.00 0.00 0.00 0.00 0.00 0.00 0.00 0.00 0.00 0.00
0.00 0.00 0.00 0.00 0.00 0.00 0.00 0.00 0.00 0.00 0.00 0.00 0.00 0.00 0.00 0.00 0.00 0.00 0.00 0.00 0.00 0.00 0.00 0.00 0.00 0.00 0.00 0.00 0.00 0.00 0.00 0.00 0.00 0.00 0.00 0.00 0.00 0.00 0.00 0.00 0.00 0.00 0.00 0.00
0.00 0.00 0.00 0.00 0.00 0.00 0.00 0.00 0.00 0.00 0.00 0.00 0.00 0.00 0.00 0.00 0.00 0.00 0.00 0.00 0.00 0.00 0.00 0.00 0.00 0.00 0.00 0.00 0.00 0.00 0.00 0.00 0.00 0.00 0.00 0.00 0.00 0.00 0.00 0.00 0.00 0.00 0.00 0.00
0.00 0.00 0.00 0.00 0.00 0.00 0.00 0.00 0.00 0.00 0.00 0.00 0.00 0.00 0.00 0.00 0.00 0.00 0.00 0.00 0.00 0.00 0.00 0.00 0.00 0.00 0.00 0.00 0.00 0.00 0.00 0.00 0.00 0.00 0.00 0.00 0.00 0.00 0.00 0.00 0.00 0.00 0.00 0.00
0.00 0.00 0.00 0.00 0.00 0.00 0.00 0.00 0.00 0.00 0.00 0.00 0.00 0.00 0.00 0.00 0.00 0.00 0.00 0.00 0.00 0.00 0.00 0.00 0.00 0.02 0.03 0.00 0.00 0.00 0.00 0.00 0.00 0.00 0.00 0.00 0.00 0.00 0.00 0.00 0.00 0.00 0.00 0.00
0.00 0.00 0.00 0.00 0.00 0.00 0.00 0.00 0.00 0.00 0.00 0.00 0.00 0.00 0.00 0.00 0.00 0.00 0.00 0.00 0.00 0.00 0.00 0.00 0.02 0.09 0.18 0.13 0.01 0.00 0.00 0.00 0.00 0.00 0.00 0.00 0.00 0.00 0.00 0.00 0.00 0.00 0.00 0.00
0.00 0.00 0.00 0.00 0.00 0.00 0.00 0.00 0.00 0.00 0.00 0.00 0.00 0.00 0.00 0.00 0.00 0.00 0.00 0.00 0.00 0.00 0.00 0.00 0.00 0.02 0.23 0.32 0.02 0.00 0.00 0.00 0.00 0.00 0.00 0.00 0.00 0.00 0.00 0.00 0.00 0.00 0.00 0.00
0.00 0.00 0.00 0.00 0.00 0.00 0.00 0.00 0.00 0.00 0.00 0.00 0.00 0.00 0.00 0.00 0.00 0.00 0.00 0.00 0.00 0.00 0.00 0.00 0.00 0.00 0.00 0.00 0.00 0.00 0.00 0.00 0.00 0.00 0.01 0.01 0.01 0.00 0.00 0.00 0.01 0.00 0.01 0.00
0.00 0.00 0.00 0.00 0.00 0.00 0.00 0.00 0.00 0.00 0.00 0.00 0.00 0.00 0.00 0.00 0.00 0.00 0.00 0.00 0.00 0.00 0.00 0.00 0.00 0.00 0.00 0.00 0.00 0.00 0.00 0.00 0.04 0.11 0.26 0.18 0.05 0.02 0.01 0.06 0.07 0.11 0.06 0.04
0.00 0.00 0.00 0.00 0.00 0.00 0.00 0.00 0.00 0.00 0.00 0.00 0.00 0.00 0.00 0.00 0.00 0.00 0.00 0.00 0.00 0.00 0.00 0.00 0.00 0.00 0.00 0.00 0.00 0.00 0.00 0.01 0.07 0.13 0.11 0.02 0.04 0.08 0.12 0.16 0.16 0.13 0.10 0.09
0.00 0.00 0.00 0.00 0.00 0.00 0.00 0.00 0.00 0.00 0.00 0.00 0.00 0.00 0.00 0.00 0.00 0.00 0.00 0.00 0.00 0.00 0.00 0.00 0.00 0.00 0.00 0.00 0.00 0.00 0.00 0.00 0.00 0.00 0.00 0.00 0.02 0.10 0.28 0.38 0.38 0.35 0.24 0.13
0.00 0.00 0.00 0.00 0.00 0.00 0.00 0.00 0.00 0.00 0.00 0.00 0.00 0.00 0.00 0.00 0.00 0.00 0.00 0.00 0.01 0.00 0.00 0.00 0.00 0.00 0.00 0.00 0.00 0.00 0.00 0.00 0.00 0.00 0.00 0.00 0.00 0.03 0.08 0.14 0.25 0.29 0.12 0.04
0.00 0.00 0.00 0.00 0.00 0.00 0.00 0.00 0.00 0.00 0.00 0.00 0.00 0.00 0.00 0.00 0.00 0.01 0.04 0.09 0.16 0.07 0.00 0.00 0.00 0.00 0.00 0.00 0.00 0.00 0.00 0.00 0.00 0.00 0.00 0.00 0.00 0.00 0.00 0.00 0.01 0.02 0.02 0.02
0.00 0.00 0.00 0.00 0.00 0.00 0.00 0.00 0.00 0.00 0.00 0.00 0.00 0.00 0.00 0.00 0.00 0.00 0.03 0.24 0.39 0.09 0.01 0.02 0.00 0.00 0.00 0.00 0.00 0.00 0.00 0.00 0.00 0.00 0.00 0.00 0.00 0.00 0.00 0.00 0.00 0.00 0.00 0.00
0.00 0.00 0.00 0.00 0.00 0.00 0.00 0.00 0.00 0.00 0.00 0.00 0.00 0.00 0.00 0.00 0.00 0.00 0.00 0.00 0.00 0.01 0.02 0.02 0.01 0.01 0.16 0.10 0.01 0.00 0.00 0.00 0.00 0.00 0.00 0.00 0.00 0.00 0.00 0.00 0.00 0.00 0.00 0.00
0.00 0.00 0.00 0.00 0.00 0.00 0.00 0.00 0.00 0.00 0.00 0.00 0.00 0.00 0.00 0.00 0.00 0.00 0.00 0.00 0.00 0.00 0.00 0.01 0.01 0.09 0.31 0.49 0.32 0.07 0.07 0.03 0.00 0.00 0.00 0.00 0.00 0.00 0.00 0.00 0.00 0.00 0.00 0.00
0.00 0.00 0.00 0.00 0.00 0.00 0.00 0.00 0.00 0.00 0.00 0.00 0.00 0.00 0.00 0.00 0.00 0.00 0.00 0.00 0.00 0.00 0.00 0.00 0.00 0.00 0.00 0.01 0.08 0.14 0.29 0.14 0.01 0.00 0.00 0.00 0.00 0.00 0.00 0.00 0.00 0.00 0.00 0.00
0.00 0.00 0.00 0.00 0.00 0.00 0.00 0.00 0.00 0.00 0.00 0.00 0.00 0.00 0.00 0.00 0.00 0.00 0.00 0.00 0.00 0.00 0.00 0.00 0.00 0.00 0.00 0.00 0.00 0.00 0.00 0.00 0.00 0.00 0.00 0.00 0.00 0.00 0.00 0.00 0.00 0.00 0.00 0.00
0.00 0.00 0.00 0.00 0.00 0.00 0.00 0.00 0.00 0.00 0.00 0.00 0.00 0.00 0.00 0.00 0.00 0.00 0.00 0.00 0.00 0.00 0.00 0.00 0.00 0.00 0.00 0.00 0.00 0.00 0.00 0.00 0.00 0.00 0.00 0.00 0.00 0.00 0.00 0.00 0.00 0.00 0.00 0.00
MSLP
998.49 998.00 997.14 996.47 996.52 997.09 998.42 997.91 997.34 997.69 997.10 996.91 996.40 996.51 996.98 997.89 998.42 999.34 1000.19 1001.14 1001.83 1002.60 1003.30 1004.01 1004.78 1005.53 1006.32 1007.03 1007.97 1008.95 1009.87 1010.75 1012.19 1013.32 1013.81 1013.92 1013.83 1013.81 1013.70 1013.72 1014.18 1014.80 1015.31 1015.80
998.30 997.11 996.70 996.61 996.45 996.70 997.17 997.09 997.47 998.28 997.88 997.29 996.10 996.33 996.49 998.62 998.14 997.99 998.67 999.63 1000.43 1001.28 1002.10 1003.15 1003.97 1004.87 1005.83 1006.61 1007.53 1008.61 1009.55 1010.51 1011.69 1012.50 1013.12 1013.29 1013.41 1013.49 1013.59 1013.86 1014.20 1014.00 1014.33 1015.32
997.46 996.59 996.32 996.47 996.55 996.71 996.36 996.09 996.03 997.00 996.66 996.51 995.66 997.24 998.72 1000.87 998.92 997.96 997.69 998.17 999.07 1000.01 1000.99 1002.14 1003.22 1004.32 1005.20 1006.20 1007.18 1008.29 1009.33 1010.26 1010.94 1011.75 1012.41 1012.85 1013.15 1014.04 1014.40 1015.05 1014.40 1014.99 1013.73 1014.67
997.02 996.66 996.49 996.67 996.53 996.08 995.62 995.46 995.53 995.76 995.78 995.31 995.28 997.37 999.36 999.75 999.85 997.48 997.49 997.75 998.13 999.06 1000.17 1001.14 1002.40 1003.55 1004.55 1005.67 1006.85 1007.89 1009.00 1009.98 1010.72 1011.56 1011.94 1012.32 1012.62 1013.60 1014.47 1014.84 1016.14 1015.04 1012.91 1014.02
996.97 996.46 996.61 996.38 996.01 996.01 996.13 995.84 995.88 995.96 995.78 995.37 994.92 995.53 1000.02 1000.76 999.63 997.88 996.96 997.10 997.21 998.05 999.31 1000.22 1001.48 1002.78 1003.97 1005.06 1006.32 1007.49 1008.62 1009.41 1010.32 1011.23 1011.61 1011.87 1012.18 1012.63 1014.30 1014.76 1014.93 1014.68 1013.71 1013.70
997.06 996.69 996.94 996.73 996.36 996.29 995.94 995.78 995.36 995.20 995.17 994.91 994.51 995.38 999.62 999.03 997.80 996.52 996.04 996.20 996.60 997.03 998.27 999.58 1000.78 1002.13 1003.41 1004.39 1005.62 1006.84 1008.15 1009.05 1009.94 1010.81 1011.37 1011.49 1011.49 1011.89 1013.67 1015.25 1014.61 1014.67 1013.83 1013.95
995.88 995.81 996.15 996.70 996.51 995.58 995.36 994.87 994.42 994.42 994.30 993.76 994.07 995.46 997.60 996.56 996.38 995.90 995.78 996.00 996.04 996.52 997.54 998.81 1000.00 1001.27 1002.60 1003.57 1004.67 1005.92 1007.33 1008.45 1009.31 1010.01 1010.69 1011.17 1011.35 1011.00 1011.74 1013.07 1013.34 1013.00 1013.09 1013.65
995.11 995.54 995.94 996.18 996.25 996.09 995.65 995.43 994.93 994.73 994.42 994.57 994.44 994.67 995.20 996.39 995.71 995.97 995.57 995.79 995.78 996.06 996.48 998.04 999.40 1000.67 1001.90 1003.00 1003.99 1005.12 1006.48 1007.74 1008.64 1009.51 1010.00 1010.69 1011.24 1011.28 1011.25 1011.44 1011.63 1011.89 1012.38 1012.76
995.84 995.53 996.07 996.40 996.70 996.84 996.01 995.68 995.75 995.24 994.55 994.33 994.03 993.55 994.71 995.30 995.66 995.96 995.95 996.03 996.14 995.72 995.77 997.55 998.92 1000.14 1001.33 1002.47 1003.46 1004.45 1005.67 1006.89 1007.74 1008.58 1009.46 1009.96 1010.54 1010.90 1010.89 1011.08 1011.18 1011.52 1011.84 1012.31
996.99 996.49 995.75 996.34 996.26 995.91 996.30 996.57 996.02 995.58 995.30 995.14 995.35 995.10 995.77 995.98 996.11 996.14 996.51 996.68 996.78 996.30 996.15 997.33 998.58 999.63 1000.68 1001.62 1002.62 1003.76 1004.86 1006.00 1006.92 1007.61 1008.37 1009.08 1009.60 1010.26 1010.60 1010.66 1010.80 1011.05 1011.29 1011.60
997.95 997.37 996.56 995.89 995.56 995.83 996.26 996.37 996.37 996.09 995.78 995.47 995.30 995.89 995.62 996.08 996.50 996.67 997.06 997.44 997.30 996.94 996.63 996.35 996.17 998.29 1000.10 1001.26 1002.26 1003.23 1004.04 1005.19 1006.26 1006.95 1007.33 1008.15 1008.69 1009.18 1009.81 1010.14 1010.20 1010.43 1010.76 1011.11
998.57 998.19 997.49 996.79 995.96 996.30 997.00 996.92 996.98 996.45 996.32 996.02 996.07 998.07 997.38 996.96 996.99 997.20 997.72 997.90 998.10 998.20 997.89 996.54 995.86 997.98 999.99 1001.14 1002.04 1003.08 1004.10 1004.65 1005.21 1006.05 1006.76 1007.19 1007.84 1008.34 1008.83 1009.44 1009.55 1009.93 1010.25 1010.66
999.87 999.19 998.38 996.99 996.28 996.93 996.94 996.81 997.07 997.04 996.75 996.49 996.77 997.53 997.88 996.98 997.59 998.11 998.22 998.49 999.08 998.96 999.00 998.68 999.98 1001.85 1002.74 1002.78 1004.70 1002.44 1003.41 1004.03 1004.65 1005.32 1006.12 1006.70 1007.28 1007.79 1008.18 1008.78 1009.22 1009.37 1009.83 1010.26
1001.14 1000.31 999.52 998.50 997.81 997.60 997.35 997.39 997.56 997.61 997.19 996.66 996.29 997.33 998.29 998.53 997.23 997.86 998.42 998.77 999.14 999.38 999.44 999.84 1001.01 1002.28 1002.37 1004.30 1005.24 1002.34 1003.08 1003.39 1004.38 1004.89 1005.37 1006.11 1006.70 1007.12 1007.49 1007.87 1008.49 1008.98 1009.36 1009.73
1000.66 1000.06 999.75 999.26 998.82 998.40 998.09 997.92 997.85 997.66 997.66 997.51 997.05 996.70 996.68 996.62 996.98 997.61 998.36 998.73 999.13 999.24 999.47 1000.11 1000.67 1001.90 1002.60 1003.56 1002.52 1002.49 1002.77 1003.25 1004.18 1005.23 1005.52 1006.49 1006.89 1007.15 1007.41 1007.63 1007.84 1008.43 1008.83 1009.23
999.95 999.93 999.93 999.63 999.28 998.76 998.12 997.86 997.54 997.24 997.21 997.11 997.01 996.69 996.54 996.52 996.93 997.51 998.27 998.83 999.18 999.46 999.54 999.84 1000.80 1001.47 1001.88 1002.35 1002.62 1002.98 1003.72 1004.57 1005.05 1005.84 1006.46 1008.01 1007.71 1007.87 1008.11 1008.20 1007.88 1008.35 1008.96 1008.96
1000.01 1000.02 1000.06 999.86 999.77 999.24 998.40 997.24 996.82 996.94 996.84 996.90 996.68 996.46 996.18 996.32 996.93 997.64 998.32 999.14 999.82 999.85 1000.19 1000.27 1000.71 1001.10 1001.69 1002.49 1003.09 1004.17 1005.09 1005.37 1005.94 1006.69 1006.41 1006.31 1007.76 1007.41 1009.08 1008.78 1008.92 1008.85 1008.76 1008.78
999.67 999.99 1000.32 1000.24 1000.11 999.23 997.88 997.19 997.38 997.65 997.74 997.53 997.07 996.91 996.80 996.96 997.54 998.37 998.43 999.15 999.48 999.67 1000.24 1000.42 1000.11 1000.75 1001.14 1002.08 1003.18 1003.80 1004.57 1005.35 1005.93 1006.27 1006.59 1007.03 1006.89 1008.56 1009.13 1007.69 1007.17 1007.76 1008.82 1008.45
999.35 999.92 1000.22 1000.35 999.89 999.03 998.11 997.52 997.34 997.64 998.03 998.06 998.14 997.72 997.63 997.85 998.46 1000.55 1001.27 1001.19 1000.00 998.39 1000.69 1000.78 1000.66 1000.66 1000.35 1000.94 1002.19 1003.39 1004.31 1005.33 1006.19 1006.35 1006.54 1006.54 1006.90 1007.71 1007.75 1007.43 1006.27 1008.72 1009.06 1007.86
999.83 1000.09 1000.57 1000.64 1000.13 999.19 998.18 998.38 998.74 998.76 999.11 999.66 999.58 999.38 999.64 999.72 999.99 1002.20 1002.54 1002.61 1002.88 1002.79 1001.19 1000.84 1000.17 1000.80 1001.56 1001.71 1002.00 1002.07 1002.84 1003.88 1004.65 1005.08 1005.66 1006.20 1006.79 1006.85 1006.45 1006.65 1006.83 1007.45 1007.68 1007.34
999.73 1000.23 1000.54 1000.27 1000.06 999.60 998.79 998.97 999.39 999.89 1001.04 1000.83 1000.91 1000.99 1001.15 1001.41 1002.34 1002.85 1004.09 1004.72 1005.14 1005.13 1002.57 1001.06 998.96 1000.09 1001.48 1002.01 1002.75 1003.82 1003.92 1003.30 1003.54 1004.57 1004.94 1005.17 1005.73 1006.06 1006.22 1006.30 1006.60 1006.94 1007.08 1006.76
999.54 999.85 1000.09 1000.20 1000.02 999.88 999.96 999.93 1000.21 1001.08 1001.37 1001.78 1001.94 1002.03 1002.20 1002.41 1002.65 1003.12 1003.32 1003.93 1003.81 1003.02 1002.38 1001.61 1000.80 1001.29 1002.59 1001.27 1000.01 1003.51 1004.49 1004.72 1004.14 1004.28 1005.17 1005.45 1005.13 1005.41 1005.80 1006.04 1006.22 1006.45 1006.48 1006.46
999.62 999.96 1000.15 1000.51 1000.10 1000.45 1000.28 1000.44 1000.93 1001.43 1002.06 1002.42 1002.64 1002.68 1002.77 1002.80 1002.88 1003.21 1003.50 1003.49 1003.27 1002.93 1002.54 1001.93 1002.10 1002.15 1003.47 1003.49 1003.67 1004.05 1004.14 1003.89 1004.94 1004.75 1004.82 1005.49 1005.19 1004.86 1005.12 1005.51 1005.71 1005.94 1005.94 1005.99
999.58 999.71 1000.20 1000.84 1000.55 1000.84 1000.99 1001.13 1001.49 1001.85 1002.31 1002.92 1003.33 1003.53 1003.53 1003.39 1003.18 1003.13 1003.31 1003.54 1003.58 1003.40 1003.06 1002.63 1002.24 1002.70 1002.89 1003.72 1004.21 1004.42 1006.02 1006.94 1006.14 1004.57 1004.93 1005.28 1005.28 1004.79 1004.93 1005.16 1005.26 1005.15 1005.08 1004.86
1000.21 1000.14 1000.35 1000.66 1001.22 1001.47 1001.46 1001.58 1001.86 1002.36 1002.95 1003.40 1003.67 1003.80 1003.91 1003.93 1003.81 1003.69 1003.50 1003.40 1003.31 1003.22 1003.07 1002.90 1002.49 1002.02 1002.67 1003.16 1003.69 1004.08 1004.25 1004.40 1004.46 1004.17 1004.71 1004.84 1004.77 1004.36 1004.37 1004.44 1004.21 1004.17 1004.09 1004.17
1000.25 1000.09 1000.24 1000.48 1000.88 1001.27 1001.78 1002.22 1002.68 1003.01 1003.41 1003.71 1003.81 1003.98 1004.15 1004.28 1004.21 1004.04 1003.80 1003.64 1003.55 1003.44 1003.36 1003.22 1003.02 1002.66 1001.89 1001.91 1002.44 1002.90 1003.14 1003.32 1003.62 1004.08 1004.24 1004.28 1003.81 1003.57 1003.61 1003.64 1003.59 1003.42 1003.54 1003.34
Thickness
5865 5848 5846 5870 5882 5877 5853 5865 5869 5859 5882 5877 5883 5884 5877 5880 5879 5870 5864 5857 5854 5849 5854 5853 5849 5846 5841 5837 5830 5824 5817 5815 5803 5793 5788 5787 5788 5793 5795 5796 5793 5788 5783 5779
5850 5844 5875 5882 5883 5872 5862 5860 5855 5847 5866 5866 5887 5885 5892 5872 5881 5882 5875 5869 5866 5863 5860 5856 5854 5849 5843 5838 5833 5826 5820 5815 5807 5800 5795 5795 5795 5796 5796 5797 5790 5791 5790 5782
5844 5866 5887 5873 5863 5854 5863 5863 5869 5847 5864 5874 5891 5857 5849 5819 5862 5887 5890 5890 5884 5874 5866 5861 5856 5851 5848 5839 5833 5827 5821 5816 5812 5807 5802 5799 5797 5788 5787 5779 5772 5779 5791 5785
5859 5879 5868 5857 5851 5866 5850 5885 5878 5872 5866 5845 5895 5824 5826 5827 5833 5876 5883 5886 5888 5884 5879 5873 5863 5855 5851 5845 5840 5832 5824 5818 5814 5808 5803 5798 5793 5785 5786 5784 5768 5780 5800 5786
5850 5863 5855 5850 5861 5869 5849 5876 5866 5865 5857 5862 5875 5867 5812 5823 5830 5854 5879 5887 5894 5892 5886 5879 5871 5864 5858 5852 5843 5836 5827 5823 5817 5810 5806 5801 5798 5798 5785 5779 5776 5780 5790 5786
5859 5883 5866 5860 5870 5871 5879 5868 5871 5871 5862 5833 5871 5865 5800 5824 5847 5875 5888 5893 5896 5899 5894 5887 5882 5873 5862 5858 5849 5841 5830 5824 5820 5813 5807 5804 5804 5806 5787 5773 5774 5778 5788 5784
5865 5865 5877 5873 5853 5879 5877 5865 5837 5832 5836 5840 5880 5845 5824 5865 5879 5885 5881 5890 5898 5902 5896 5889 5882 5873 5865 5860 5854 5846 5835 5826 5825 5820 5813 5807 5805 5813 5808 5794 5791 5795 5792 5785
5852 5832 5863 5876 5861 5847 5857 5859 5835 5803 5818 5831 5871 5844 5844 5878 5890 5891 5897 5897 5900 5899 5901 5892 5885 5878 5870 5863 5859 5851 5841 5831 5828 5823 5819 5814 5809 5806 5807 5807 5807 5802 5798 5797
5845 5847 5876 5871 5869 5862 5851 5842 5866 5843 5861 5845 5866 5884 5882 5887 5880 5879 5882 5890 5888 5897 5902 5892 5886 5880 5872 5865 5859 5855 5845 5836 5833 5828 5822 5818 5815 5812 5811 5810 5811 5808 5808 5803
5854 5829 5875 5868 5876 5877 5858 5866 5833 5848 5810 5804 5832 5840 5827 5851 5858 5868 5866 5874 5880 5890 5895 5889 5884 5881 5878 5873 5866 5859 5852 5841 5836 5833 5828 5823 5820 5816 5814 5814 5812 5811 5811 5810
5853 5845 5847 5873 5863 5851 5851 5841 5848 5854 5850 5820 5819 5824 5872 5858 5861 5860 5862 5867 5874 5881 5887 5891 5891 5887 5879 5872 5866 5859 5854 5845 5837 5834 5833 5827 5823 5821 5817 5815 5815 5814 5813 5812
5850 5837 5818 5837 5876 5875 5856 5842 5841 5823 5823 5845 5841 5798 5856 5868 5861 5861 5856 5863 5866 5869 5876 5881 5877 5873 5870 5864 5861 5854 5850 5846 5845 5839 5834 5832 5827 5823 5819 5816 5817 5816 5813 5813
5836 5820 5800 5825 5857 5860 5843 5852 5850 5849 5849 5828 5816 5812 5848 5864 5852 5851 5848 5852 5852 5858 5864 5872 5849 5834 5823 5813 5814 5859 5852 5847 5847 5843 5836 5832 5827 5823 5820 5818 5817 5818 5815 5812
5827 5815 5807 5796 5819 5839 5828 5836 5840 5833 5816 5827 5837 5825 5820 5818 5846 5843 5846 5847 5849 5852 5856 5859 5848 5832 5824 5807 5813 5854 5853 5853 5846 5843 5839 5831 5828 5825 5824 5823 5819 5816 5816 5814
5827 5803 5815 5821 5827 5829 5825 5824 5827 5820 5824 5807 5824 5830 5846 5858 5851 5845 5844 5845 5843 5845 5848 5847 5848 5837 5829 5821 5841 5849 5851 5849 5844 5832 5832 5822 5821 5821 5821 5821 5820 5817 5815 5813
5835 5803 5812 5804 5821 5823 5816 5826 5829 5831 5830 5828 5829 5827 5858 5864 5858 5846 5841 5840 5835 5837 5841 5846 5839 5839 5839 5839 5841 5842 5835 5829 5828 5816 5809 5794 5803 5806 5810 5810 5813 5813 5808 5810
5815 5807 5796 5782 5806 5807 5795 5824 5832 5830 5838 5832 5814 5836 5856 5850 5846 5842 5839 5835 5830 5830 5831 5834 5832 5830 5832 5830 5831 5821 5816 5815 5809 5803 5796 5802 5799 5800 5793 5802 5797 5801 5802 5803
5811 5804 5798 5780 5790 5759 5817 5846 5836 5823 5826 5834 5835 5838 5844 5844 5845 5846 5852 5834 5835 5833 5826 5826 5834 5830 5829 5825 5818 5817 5813 5805 5801 5798 5797 5793 5797 5790 5788 5801 5803 5793 5789 5794
5828 5807 5786 5772 5776 5798 5815 5826 5823 5814 5810 5828 5822 5832 5837 5840 5837 5811 5812 5818 5809 5819 5826 5825 5826 5822 5830 5827 5820 5809 5803 5796 5787 5786 5788 5791 5790 5787 5787 5788 5800 5780 5772 5790
5817 5813 5788 5778 5761 5757 5809 5819 5831 5825 5783 5809 5816 5814 5812 5817 5792 5778 5792 5792 5786 5795 5816 5822 5827 5821 5810 5810 5812 5810 5804 5797 5791 5791 5789 5788 5784 5781 5785 5787 5787 5785 5783 5789
5785 5785 5771 5775 5768 5785 5815 5815 5821 5769 5764 5799 5802 5800 5798 5788 5781 5786 5774 5769 5772 5771 5797 5806 5811 5814 5804 5801 5797 5785 5785 5788 5789 5786 5785 5784 5783 5781 5781 5781 5782 5780 5780 5786
5779 5772 5770 5776 5765 5756 5804 5801 5775 5782 5794 5792 5790 5790 5786 5788 5787 5777 5781 5774 5777 5782 5791 5802 5804 5803 5766 5769 5796 5774 5768 5771 5777 5775 5770 5769 5773 5771 5770 5768 5767 5768 5770 5770
5771 5782 5771 5774 5775 5795 5802 5796 5796 5794 5783 5780 5778 5781 5779 5777 5777 5775 5766 5766 5768 5772 5779 5787 5781 5770 5759 5750 5737 5756 5759 5755 5753 5755 5757 5755 5762 5764 5764 5761 5760 5758 5760 5759
5792 5798 5775 5773 5788 5781 5785 5791 5788 5784 5778 5775 5772 5766 5765 5760 5764 5764 5763 5758 5754 5754 5755 5763 5771 5757 5752 5744 5738 5733 5722 5716 5734 5745 5741 5740 5741 5747 5749 5751 5753 5754 5755 5757
5780 5779 5769 5769 5777 5776 5778 5777 5776 5772 5769 5762 5760 5756 5751 5749 5747 5748 5747 5746 5746 5745 5746 5746 5748 5755 5745 5742 5735 5725 5725 5724 5723 5730 5728 5728 5731 5734 5736 5740 5744 5747 5752 5751
5778 5768 5757 5753 5773 5766 5764 5768 5765 5756 5752 5750 5746 5742 5740 5735 5730 5732 5731 5733 5732 5729 5729 5725 5724 5727 5735 5736 5731 5725 5721 5720 5718 5712 5711 5714 5719 5724 5726 5727 5730 5737 5737 5742